Terminal Aerodrome Forecast
Issued by NWS Memphis, TN

Home | Current Version | Previous Version | Text Only | Print | Product List | Glossary On
Versions: 1 2 3 4 5 6 7 8 9 10 11 12 13 14 15 16 17 18 19 20 21 22 23 24 25 26 27 28 29 30 31 32 33 34 35 36 37 38 39
000
FTUS44 KMEG 251733
TAFMEM
TAF
KMEM 251733Z 2518/2618 19010KT P6SM FEW250
     FM260000 18008KT P6SM SCT250
     FM261500 18010KT P6SM SCT035 BKN250=

USA.gov is the U.S. government's official web portal to all federal, state and local government web resources and services.